EW2837 Weather Reports


time (UTC)temp
C
wind
direction
speed
KPH
gust
KPH
rain 1hr
cm
rain 24hr
cm
rain mn
cm
humidity
%
barometer
mb
20260507063026 12 259 4.8 9.7 0.00 0.00 0.00 82 1020.6
20260507062526 12 270 4.8 9.7 0.00 0.00 0.00 82 1020.5
20260507062026 12 244 3.2 11.3 0.00 0.00 0.00 82 1020.5
20260507061548 12 234 4.8 12.9 0.00 0.00 0.00 81 1020.5
20260507061047 12 291 4.8 12.9 0.00 0.00 0.00 81 1020.6
20260507060527 12 254 3.2 12.9 0.00 0.00 0.00 81 1020.6
20260507060030 12 248 4.8 12.9 0.00 0.00 0.00 81 1020.6
20260507055549 12 295 4.8 11.3 0.00 0.00 0.00 81 1020.6
20260507055029 12 294 6.4 11.3 0.00 0.00 0.00 81 1020.6
20260507054533 12 290 6.4 12.9 0.00 0.00 0.00 81 1020.6
20260507054017 12 266 3.2 12.9 0.00 0.00 0.00 81 1020.6
20260507053520 12 331 3.2 11.3 0.00 0.00 0.00 81 1020.6
20260507053022 12 244 6.4 11.3 0.00 0.00 0.00 81 1020.6
20260507052520 12 220 3.2 9.7 0.00 0.00 0.00 81 1020.6
20260507052018 12 270 3.2 11.3 0.00 0.00 0.00 82 1020.6
20260507051539 12 257 3.2 11.3 0.00 0.00 0.00 81 1020.6
20260507051019 12 209 1.6 11.3 0.00 0.00 0.00 81 1020.7
20260507050519 12 274 3.2 11.3 0.00 0.00 0.00 81 1020.7
20260507050018 12 278 1.6 9.7 0.00 0.00 0.00 81 1020.7
20260507045541 12 260 6.4 9.7 0.00 0.00 0.00 81 1020.7
20260507045022 12 264 3.2 9.7 0.00 0.00 0.00 80 1020.7
20260507044541 12 286 4.8 9.7 0.00 0.00 0.00 80 1020.7
20260507044020 12 245 4.8 11.3 0.00 0.00 0.00 81 1020.7
20260507043520 12 292 6.4 11.3 0.00 0.00 0.00 80 1020.7
20260507043021 12 293 3.2 9.7 0.00 0.00 0.00 80 1020.7
20260507042520 12 290 1.6 12.9 0.00 0.00 0.00 80 1020.7
20260507042042 13 238 4.8 12.9 0.00 0.00 0.00 79 1020.7
20260507041528 13 192 6.4 12.9 0.00 0.00 0.00 79 1020.7
20260507041048 13 301 4.8 14.5 0.00 0.00 0.00 79 1020.6
20260507040529 13 309 6.4 14.5 0.00 0.00 0.00 79 1020.6
20260507040029 13 281 1.6 9.7 0.00 0.00 0.00 79 1020.6
20260507035528 13 260 4.8 16.1 0.00 0.00 0.00 79 1020.6
20260507035029 13 284 8.0 16.1 0.00 0.00 0.00 78 1020.5
20260507034548 13 227 6.4 14.5 0.00 0.00 0.00 78 1020.4
20260507034048 13 288 6.4 22.5 0.00 0.00 0.00 78 1020.3
20260507033526 13 294 8.0 22.5 0.00 0.00 0.00 78 1020.3
20260507033024 13 237 8.0 16.1 0.00 0.00 0.00 78 1020.2
20260507032524 13 260 4.8 14.5 0.00 0.00 0.00 78 1020.2
20260507032023 13 301 6.4 16.1 0.00 0.00 0.00 78 1020.1
20260507031523 13 296 6.4 16.1 0.00 0.00 0.00 77 1020.1
20260507031045 13 295 6.4 12.9 0.00 0.00 0.00 78 1020.0
20260507030522 13 301 8.0 14.5 0.00 0.00 0.00 78 1020.0
20260507030020 14 279 8.0 14.5 0.00 0.00 0.00 77 1019.8
20260507025538 14 277 4.8 14.5 0.00 0.00 0.00 77 1019.8
20260507025021 14 244 4.8 12.9 0.00 0.00 0.00 77 1019.8
20260507024528 14 269 4.8 12.9 0.00 0.00 0.00 78 1019.7
20260507024049 14 296 6.4 12.9 0.00 0.00 0.00 78 1019.7
20260507023526 14 247 4.8 14.5 0.00 0.00 0.00 78 1019.5
20260507023027 15 296 4.8 14.5 0.00 0.00 0.00 78 1019.6
20260507022527 15 232 6.4 14.5 0.00 0.00 0.00 77 1019.5
20260507022047 15 303 8.0 14.5 0.00 0.00 0.00 77 1019.5
20260507021526 15 292 8.0 14.5 0.00 0.00 0.00 76 1019.5
20260507021047 15 253 8.0 12.9 0.00 0.00 0.00 76 1019.6
20260507020528 15 313 6.4 11.3 0.00 0.00 0.00 75 1019.5
20260507020027 15 271 6.4 11.3 0.00 0.00 0.00 76 1019.5
20260507015526 15 298 4.8 12.9 0.00 0.00 0.00 76 1019.6
20260507015026 16 308 6.4 12.9 0.00 0.00 0.00 75 1019.5
20260507014526 16 270 6.4 16.1 0.00 0.00 0.00 75 1019.5
20260507014028 16 273 6.4 16.1 0.00 0.00 0.00 76 1019.5
20260507013530 16 225 6.4 17.7 0.00 0.00 0.00 75 1019.5
20260507013030 16 286 4.8 17.7 0.00 0.00 0.00 74 1019.6
20260507012549 16 275 8.0 12.9 0.00 0.00 0.00 74 1019.6
20260507012047 16 264 6.4 16.1 0.00 0.00 0.00 73 1019.6
20260507011525 17 293 4.8 12.9 0.00 0.00 0.00 74 1019.6
20260507011045 17 314 6.4 12.9 0.00 0.00 0.00 74 1019.6
20260507010530 16 312 4.8 14.5 0.00 0.00 0.00 74 1019.6
20260507010010 17 248 8.0 14.5 0.00 0.00 0.00 73 1019.7
20260507005512 17 331 6.4 12.9 0.00 0.00 0.00 73 1019.7
20260507005011 17 284 6.4 14.5 0.00 0.00 0.00 72 1019.6
20260507004511 17 209 6.4 14.5 0.00 0.00 0.00 72 1019.5
20260507004012 17 307 6.4 14.5 0.00 0.00 0.00 72 1019.5
20260507003514 17 250 6.4 14.5 0.00 0.00 0.00 73 1019.5
20260507003012 17 234 8.0 14.5 0.00 0.00 0.00 73 1019.4
20260507002514 17 265 8.0 16.1 0.00 0.00 0.00 73 1019.4
20260507002016 17 218 6.4 16.1 0.00 0.00 0.00 73 1019.4
20260507001519 17 188 8.0 14.5 0.00 0.00 0.00 73 1019.3
20260507001021 17 229 8.0 14.5 0.00 0.00 0.00 73 1019.3
20260507000523 17 228 8.0 16.1 0.00 0.00 0.00 72 1019.3
20260507000023 17 200 8.0 14.5 0.00 0.00 0.00 72 1019.4
20260506235543 18 229 8.0 14.5 0.00 0.00 0.00 72 1019.4
20260506235023 18 277 6.4 14.5 0.00 0.00 0.00 73 1019.3
20260506234524 18 233 8.0 14.5 0.00 0.00 0.00 71 1019.4
20260506234025 18 252 4.8 14.5 0.00 0.00 0.00 72 1019.3
20260506233015 18 240 6.4 12.9 0.00 0.00 0.00 71 1019.3
20260506232519 18 232 6.4 12.9 0.00 0.00 0.00 70 1019.3
20260506232018 18 278 6.4 12.9 0.00 0.00 0.00 70 1019.4
20260506231520 18 217 8.0 12.9 0.00 0.00 0.00 71 1019.3
20260506231020 18 258 4.8 14.5 0.00 0.00 0.00 71 1019.3
20260506230522 18 252 8.0 14.5 0.00 0.00 0.00 70 1019.3
20260506230023 19 200 6.4 9.7 0.00 0.00 0.00 71 1019.4
20260506225543 19 286 4.8 11.3 0.00 0.00 0.00 69 1019.4
20260506225023 19 169 4.8 11.3 0.00 0.00 0.00 71 1019.4
20260506224521 18 169 4.8 9.7 0.00 0.00 0.00 72 1019.5
20260506224041 18 269 4.8 12.9 0.00 0.00 0.00 71 1019.5
20260506223520 18 175 6.4 12.9 0.00 0.00 0.00 71 1019.5
20260506223018 18 173 3.2 8.0 0.00 0.00 0.00 71 1019.6
20260506222520 18 181 1.6 4.8 0.00 0.00 0.00 72 1019.7
20260506222022 18 256 3.2 6.4 0.00 0.00 0.00 72 1019.7
20260506221524 17 229 3.2 6.4 0.00 0.00 0.00 76 1019.8
20260506221026 17 317 3.2 6.4 0.00 0.00 0.00 74 1019.9
20260506220530 17 184 0.0 6.4 0.00 0.00 0.00 74 1019.9
20260506220050 17 292 1.6 6.4 0.00 0.00 0.00 77 1019.8
20260506215531 17 323 4.8 9.7 0.00 0.00 0.00 76 1019.9
20260506215030 17 312 3.2 8.0 0.00 0.00 0.00 76 1019.9
20260506214512 17 249 3.2 8.0 0.00 0.00 0.00 76 1019.9
20260506214014 17 312 3.2 6.4 0.00 0.00 0.00 77 1019.9
20260506213516 17 311 3.2 8.0 0.00 0.00 0.00 76 1020.0
20260506213017 17 306 4.8 8.0 0.00 0.00 0.00 76 1020.0
20260506212538 17 247 1.6 6.4 0.00 0.00 0.00 77 1020.0
20260506212039 17 227 1.6 6.4 0.00 0.00 0.00 78 1019.9
20260506211520 16 130 1.6 3.2 0.00 0.00 0.00 80 1020.0
20260506211020 16 336 0.0 6.4 0.00 0.00 0.00 77 1020.1
20260506210519 17 216 3.2 6.4 0.00 0.00 0.00 79 1020.1
20260506210041 17 311 3.2 6.4 0.00 0.00 0.00 79 1020.2
20260506205520 17 166 3.2 6.4 0.00 0.00 0.00 80 1020.2
20260506205020 17 313 3.2 9.7 0.00 0.00 0.00 78 1020.2
20260506204525 17 200 4.8 9.7 0.00 0.00 0.00 80 1020.2
20260506204028 17 297 3.2 6.4 0.00 0.00 0.00 80 1020.3
20260506203529 16 269 1.6 6.4 0.00 0.00 0.00 80 1020.4
20260506203050 16 278 3.2 6.4 0.00 0.00 0.00 80 1020.3
20260506202528 16 85 3.2 6.4 0.00 0.00 0.00 79 1020.3
20260506202047 16 140 1.6 4.8 0.00 0.00 0.00 81 1020.3
20260506201526 16 282 3.2 4.8 0.00 0.00 0.00 80 1020.3
20260506201026 16 202 3.2 8.0 0.00 0.00 0.00 81 1020.2
20260506200529 16 87 1.6 8.0 0.00 0.00 0.00 81 1020.2
20260506200025 16 94 3.2 4.8 0.00 0.00 0.00 83 1020.2
20260506195545 16 30 3.2 6.4 0.00 0.00 0.00 82 1020.2
20260506195026 16 82 3.2 8.0 0.00 0.00 0.00 82 1020.2
20260506194529 16 145 3.2 4.8 0.00 0.00 0.00 83 1020.3
20260506194012 15 219 1.6 4.8 0.00 0.00 0.00 84 1020.4
20260506193512 15 180 0.0 8.0 0.00 0.00 0.00 83 1020.5
20260506193013 15 220 4.8 8.0 0.00 0.00 0.00 84 1020.5
20260506192518 15 174 1.6 4.8 0.00 0.00 0.00 84 1020.5
20260506192038 15 196 1.6 8.0 0.00 0.00 0.00 84 1020.5
20260506191518 15 232 4.8 8.0 0.00 0.00 0.00 85 1020.5
20260506191017 15 251 4.8 8.0 0.00 0.00 0.00 84 1020.5
20260506190518 15 211 3.2 6.4 0.00 0.00 0.00 84 1020.5
20260506190020 15 259 3.2 6.4 0.00 0.00 0.00 84 1020.5
20260506185522 15 237 1.6 4.8 0.00 0.00 0.00 83 1020.3
20260506185020 15 210 1.6 6.4 0.00 0.00 0.00 83 1020.3
20260506184539 15 190 3.2 6.4 0.00 0.00 0.00 83 1020.2
20260506184020 15 192 3.2 6.4 0.00 0.00 0.00 84 1020.3
20260506183542 15 202 3.2 6.4 0.00 0.00 0.00 84 1020.3
20260506183022 15 189 1.6 4.8 0.00 0.00 0.00 83 1020.3
20260506182031 15 311 1.6 6.4 0.00 0.00 0.00 83 1020.2
20260506181513 15 248 4.8 6.4 0.00 0.00 0.00 84 1020.2
20260506181014 15 298 1.6 6.4 0.00 0.00 0.00 83 1020.2
20260506180516 15 244 3.2 6.4 0.00 0.00 0.00 84 1020.2
20260506180018 15 235 1.6 3.2 0.00 0.00 0.00 84 1020.1
20260506175522 15 152 1.6 6.4 0.00 0.00 0.00 85 1020.1
20260506175021 15 213 3.2 6.4 0.00 0.00 0.00 85 1020.2
20260506174522 14 355 1.6 6.4 0.00 0.00 0.00 84 1020.2
20260506174021 14 226 4.8 6.4 0.00 0.00 0.00 86 1020.1
20260506173520 14 300 1.6 4.8 0.00 0.00 0.00 85 1020.0
20260506173021 14 231 0.0 8.0 0.00 0.00 0.00 85 1020.1
20260506172523 13 226 3.2 6.4 0.00 0.00 0.00 85 1020.0
20260506172025 14 305 4.8 6.4 0.00 0.00 0.00 85 1019.9
20260506171547 14 271 4.8 6.4 0.00 0.00 0.00 85 1019.9
20260506171028 14 225 1.6 6.4 0.00 0.00 0.00 85 1019.9
20260506170527 14 187 3.2 4.8 0.00 0.00 0.00 87 1019.9
20260506170028 13 168 3.2 4.8 0.00 0.00 0.00 86 1019.9
20260506165547 13 314 3.2 4.8 0.00 0.00 0.00 86 1019.9
20260506165025 13 248 1.6 6.4 0.00 0.00 0.00 86 1019.8
20260506164526 13 267 3.2 6.4 0.00 0.00 0.00 86 1019.8
20260506164012 13 169 3.2 6.4 0.00 0.00 0.00 87 1019.9
20260506163511 13 254 3.2 8.0 0.00 0.00 0.00 87 1019.8
20260506163014 13 254 4.8 9.7 0.00 0.00 0.00 87 1019.9
20260506162515 13 267 3.2 8.0 0.00 0.00 0.00 87 1019.9
20260506162014 13 250 3.2 6.4 0.00 0.00 0.00 87 1019.9
20260506161533 13 242 1.6 9.7 0.00 0.00 0.00 87 1019.9
20260506161014 13 223 3.2 9.7 0.00 0.00 0.00 86 1019.9
20260506160515 13 215 3.2 6.4 0.00 0.00 0.00 87 1019.8
20260506160016 13 209 1.6 6.4 0.00 0.00 0.00 86 1019.7
20260506155517 13 204 1.6 4.8 0.00 0.00 0.00 86 1019.5
20260506155015 13 175 0.0 3.2 0.00 0.00 0.00 87 1019.5
20260506154517 13 106 1.6 4.8 0.00 0.00 0.00 87 1019.3
20260506154018 13 126 1.6 6.4 0.00 0.00 0.00 87 1019.1
20260506153520 13 71 1.6 6.4 0.00 0.00 0.00 87 1019.1
20260506153026 12 113 1.6 3.2 0.00 0.00 0.00 87 1019.2
20260506152529 12 88 1.6 3.2 0.00 0.00 0.00 88 1019.3
20260506152051 12 262 1.6 4.8 0.00 0.00 0.00 88 1019.6
20260506151524 12 122 1.6 4.8 0.00 0.00 0.00 89 1019.4
20260506151024 12 238 1.6 6.4 0.00 0.00 0.00 89 1019.7
20260506150524 12 277 3.2 9.7 0.00 0.00 0.00 89 1019.8
20260506150022 12 221 3.2 9.7 0.00 0.00 0.00 89 1019.8
20260506145524 12 241 3.2 9.7 0.00 0.03 0.00 89 1019.9
20260506145026 12 263 3.2 9.7 0.00 0.03 0.00 89 1019.9
20260506144526 12 294 4.8 9.7 0.00 0.03 0.00 89 1019.8
20260506144025 12 272 4.8 9.7 0.00 0.03 0.00 90 1019.8
20260506143524 12 254 3.2 6.4 0.00 0.03 0.00 90 1019.7
20260506143022 12 215 0.0 6.4 0.00 0.03 0.00 90 1019.6
20260506142521 12 268 3.2 8.0 0.00 0.03 0.00 90 1019.5
20260506142042 12 311 1.6 8.0 0.00 0.03 0.00 90 1019.6
20260506141522 12 265 4.8 8.0 0.00 0.03 0.00 90 1019.5
20260506141029 12 240 3.2 6.4 0.00 0.03 0.00 91 1019.3
20260506140531 12 267 1.6 4.8 0.00 0.03 0.00 91 1019.2
20260506140013 12 297 1.6 4.8 0.00 0.03 0.00 91 1019.1
20260506135534 12 274 0.0 6.4 0.00 0.03 0.00 91 1019.0
20260506135014 12 254 3.2 6.4 0.00 0.03 0.00 91 1019.1
20260506134515 12 242 3.2 6.4 0.00 0.03 0.00 92 1019.0
20260506134015 11 239 3.2 8.0 0.00 0.03 0.00 92 1018.9
20260506133516 11 213 3.2 8.0 0.00 0.03 0.00 92 1018.9
20260506133018 11 220 4.8 8.0 0.00 0.03 0.00 92 1018.9
20260506132518 11 240 3.2 6.4 0.00 0.03 0.00 92 1018.9
20260506132020 11 244 4.8 8.0 0.00 0.03 0.00 92 1018.9
20260506131522 11 221 4.8 8.0 0.00 0.03 0.00 92 1018.8
20260506131018 11 222 1.6 8.0 0.00 0.03 0.00 92 1018.8
20260506130520 11 257 4.8 8.0 0.00 0.03 0.00 92 1018.7
20260506130021 11 257 3.2 6.4 0.00 0.03 0.00 91 1018.6
20260506125521 11 232 1.6 6.4 0.00 0.03 0.00 91 1018.5
20260506125022 12 211 3.2 6.4 0.00 0.03 0.00 91 1018.5
20260506124519 12 234 0.0 4.8 0.00 0.03 0.00 91 1018.4
20260506124018 12 291 3.2 6.4 0.00 0.03 0.00 91 1018.4
20260506123520 12 267 3.2 6.4 0.00 0.03 0.00 91 1018.3
20260506123019 12 236 3.2 6.4 0.00 0.03 0.00 91 1018.3
20260506122520 12 271 1.6 4.8 0.00 0.03 0.00 91 1018.4
20260506122019 12 246 1.6 4.8 0.00 0.03 0.00 91 1018.4
20260506121518 12 248 3.2 4.8 0.00 0.03 0.00 90 1018.4
20260506121020 12 273 1.6 4.8 0.00 0.03 0.00 90 1018.4
20260506120521 12 263 0.0 4.8 0.00 0.03 0.00 90 1018.5
20260506120037 12 286 1.6 6.4 0.00 0.03 0.00 90 1018.5
20260506115515 12 240 1.6 6.4 0.00 0.03 0.00 90 1018.4
20260506115019 12 242 1.6 8.0 0.00 0.03 0.00 90 1018.4
20260506114518 12 259 3.2 6.4 0.00 0.03 0.00 90 1018.3
20260506114020 12 173 3.2 6.4 0.00 0.03 0.00 90 1018.3
20260506113522 12 270 1.6 4.8 0.00 0.03 0.00 90 1018.2
20260506113024 12 257 0.0 3.2 0.00 0.03 0.00 90 1018.2
20260506112526 12 252 1.6 3.2 0.00 0.03 0.00 90 1018.1
20260506112027 12 275 1.6 6.4 0.00 0.03 0.00 90 1018.1
20260506111550 12 271 3.2 6.4 0.00 0.03 0.00 90 1018.2
20260506111051 12 255 1.6 6.4 0.00 0.03 0.00 90 1018.1
20260506110530 12 242 3.2 4.8 0.00 0.03 0.00 91 1018.0
20260506110051 12 260 1.6 4.8 0.00 0.03 0.00 91 1018.0
20260506105550 12 268 1.6 6.4 0.00 0.03 0.00 91 1017.9
20260506105027 12 242 3.2 6.4 0.00 0.03 0.00 91 1017.9
20260506104528 12 269 1.6 4.8 0.00 0.03 0.00 91 1017.8
20260506104030 12 277 3.2 4.8 0.00 0.03 0.00 91 1017.7
20260506103550 12 251 1.6 4.8 0.00 0.03 0.00 91 1017.7
20260506103050 12 269 1.6 4.8 0.00 0.03 0.00 91 1017.7
20260506102527 12 269 1.6 4.8 0.00 0.03 0.00 91 1017.6
20260506102026 12 249 1.6 3.2 0.00 0.03 0.00 91 1017.5
20260506101526 12 246 1.6 4.8 0.00 0.03 0.00 90 1017.4
20260506101012 12 286 0.0 4.8 0.00 0.03 0.00 90 1017.4
20260506100514 12 302 1.6 4.8 0.00 0.03 0.00 90 1017.3
20260506100036 12 295 1.6 4.8 0.00 0.03 0.00 90 1017.3
20260506095517 12 294 1.6 3.2 0.00 0.03 0.00 90 1017.3
20260506095018 12 314 1.6 3.2 0.00 0.03 0.00 90 1017.3
20260506094541 12 275 0.0 4.8 0.00 0.03 0.00 90 1017.3
20260506094022 12 294 1.6 4.8 0.00 0.03 0.00 90 1017.2
20260506093522 12 272 1.6 6.4 0.00 0.03 0.00 90 1017.2
20260506093020 12 248 1.6 6.4 0.00 0.03 0.00 90 1017.2
20260506092522 12 260 1.6 6.4 0.00 0.03 0.00 90 1017.2
20260506092022 12 257 1.6 4.8 0.00 0.03 0.00 90 1017.1
20260506091525 12 250 1.6 6.4 0.00 0.03 0.00 90 1017.1
20260506091025 12 258 3.2 6.4 0.00 0.03 0.00 90 1017.0
20260506090527 12 240 3.2 4.8 0.00 0.03 0.00 90 1017.1
20260506090012 12 267 1.6 4.8 0.00 0.03 0.00 90 1017.1
20260506085511 12 203 1.6 8.0 0.00 0.03 0.00 90 1017.1
20260506085012 12 248 4.8 8.0 0.00 0.03 0.00 90 1017.2
20260506084551 12 269 3.2 6.4 0.00 0.03 0.00 90 1017.1
20260506084030 12 216 3.2 6.4 0.00 0.03 0.00 90 1017.1
20260506083549 12 252 1.6 4.8 0.00 0.03 0.00 90 1017.1
20260506083029 12 204 3.2 4.8 0.00 0.03 0.00 90 1017.1
20260506082529 12 216 1.6 4.8 0.00 0.03 0.00 90 1017.1
20260506082030 12 265 1.6 3.2 0.00 0.03 0.00 90 1017.1
20260506081530 12 233 1.6 3.2 0.00 0.03 0.00 90 1017.0
20260506081011 12 229 3.2 3.2 0.00 0.03 0.00 90 1017.0
20260506080512 12 248 0.0 3.2 0.00 0.03 0.00 90 1017.0
20260506073511 12 286 0.0 3.2 0.00 0.03 0.00 90 1016.8
20260506073014 12 286 0.0 3.2 0.00 0.03 0.00 90 1016.7
20260506072518 12 282 0.0 1.6 0.00 0.03 0.00 90 1016.7
20260506072019 12 282 0.0 1.6 0.00 0.03 0.00 90 1016.7
20260506071521 12 277 0.0 1.6 0.00 0.03 0.00 90 1016.7
20260506071024 12 277 0.0 1.6 0.00 0.03 0.00 90 1016.6
20260506070526 12 277 0.0 1.6 0.00 0.03 0.00 90 1016.6